When you browse on this site, cookies collect data to enhance your experience and personalize the content and advertising you see.
Visit our Privacy Policy to learn more. By continuing to use the site, you agree to this use of cookies and data.
  • In Hungary
  • List of Countries
  • For 7 days
  • Water Temperature
  • Satellite Maps
  • Weather Map
  • News
  • Weather Widgets
  • user-avatar
    Login

    Hourly Weather Manika

    Today, 20 January, Sunday

    Time Temperature Precipitation Wind Pressure Humidity
    00:00 +20°C° 0.1 mm 0 mps 677 mmHg 88%
    01:00 +20°C° 0.1 mm 0 mps 677 mmHg 89%
    02:00 +20°C° 0 mm 0 mps 678 mmHg 90%
    03:00 +20°C° 0.2 mm 0 mps 678 mmHg 92%
    04:00 +21°C° 0.2 mm 1 mps 678 mmHg 93%
    05:00 +21°C° 0.2 mm 1 mps 678 mmHg 94%
    06:00 +22°C° 0.3 mm 1 mps 679 mmHg 90%
    07:00 +23°C° 0.3 mm 2 mps 679 mmHg 86%
    08:00 +24°C° 0.3 mm 2 mps 680 mmHg 81%
    09:00 +25°C° 0.2 mm 3 mps 680 mmHg 75%
    10:00 +26°C° 0.2 mm 4 mps 680 mmHg 68%
    11:00 +28°C° 0.2 mm 4 mps 681 mmHg 61%
    12:00 +27°C° 0.2 mm 4 mps 680 mmHg 63%
    13:00 +27°C° 0.2 mm 4 mps 680 mmHg 66%
    14:00 +26°C° 0.2 mm 5 mps 680 mmHg 68%
    15:00 +25°C° 0.2 mm 4 mps 680 mmHg 72%
    16:00 +23°C° 0.2 mm 4 mps 679 mmHg 76%
    17:00 +22°C° 0.2 mm 3 mps 679 mmHg 81%
    18:00 +21°C° 0.1 mm 3 mps 679 mmHg 83%
    19:00 +20°C° 0.1 mm 3 mps 679 mmHg 86%
    20:00 +19°C° 0.1 mm 2 mps 680 mmHg 89%
    21:00 +19°C° 0 mm 2 mps 680 mmHg 89%
    22:00 +19°C° 0 mm 2 mps 680 mmHg 89%
    23:00 +19°C° 0 mm 2 mps 681 mmHg 90%

    Tomorrow, 21 January, Monday

    Time Temperature Precipitation Wind Pressure Humidity
    00:00 +18°C° 0 mm 2 mps 680 mmHg 90%
    01:00 +18°C° 0 mm 2 mps 680 mmHg 90%
    02:00 +18°C° 0 mm 2 mps 680 mmHg 90%
    03:00 +17°C° 0.1 mm 2 mps 679 mmHg 91%
    04:00 +17°C° 0.1 mm 2 mps 679 mmHg 91%
    05:00 +17°C° 0.1 mm 2 mps 679 mmHg 91%
    06:00 +17°C° 0.1 mm 2 mps 680 mmHg 90%
    07:00 +17°C° 0.1 mm 2 mps 680 mmHg 89%
    08:00 +17°C° 0.1 mm 2 mps 681 mmHg 88%
    09:00 +18°C° 0 mm 2 mps 680 mmHg 85%
    10:00 +19°C° 0 mm 2 mps 680 mmHg 82%
    11:00 +19°C° 0 mm 2 mps 680 mmHg 79%
    12:00 +20°C° 0 mm 2 mps 680 mmHg 76%
    13:00 +21°C° 0 mm 2 mps 679 mmHg 74%
    14:00 +21°C° 0 mm 2 mps 679 mmHg 72%
    15:00 +21°C° 0 mm 2 mps 678 mmHg 74%
    16:00 +20°C° 0 mm 2 mps 678 mmHg 77%
    17:00 +20°C° 0 mm 2 mps 677 mmHg 80%
    18:00 +20°C° 0 mm 1 mps 678 mmHg 83%
    19:00 +20°C° 0 mm 1 mps 678 mmHg 85%
    20:00 +19°C° 0 mm 1 mps 678 mmHg 88%
    21:00 +19°C° 0 mm 1 mps 678 mmHg 91%
    22:00 +18°C° 0 mm 1 mps 678 mmHg 94%
    23:00 +16°C° 0 mm 1 mps 678 mmHg 97%

    Day after tomorrow, 22 January, Tuesday

    Time Temperature Precipitation Wind Pressure Humidity
    00:00 +16°C° 0 mm 1 mps 678 mmHg 97%
    01:00 +16°C° 0 mm 1 mps 677 mmHg 97%
    02:00 +16°C° 0 mm 1 mps 677 mmHg 97%
    03:00 +16°C° 0 mm 1 mps 677 mmHg 97%
    04:00 +16°C° 0 mm 1 mps 677 mmHg 97%
    05:00 +18°C° 0 mm 1 mps 677 mmHg 97%
    06:00 +19°C° 0 mm 1 mps 677 mmHg 92%
    07:00 +20°C° 0 mm 1 mps 677 mmHg 88%
    08:00 +20°C° 0 mm 2 mps 678 mmHg 84%
    09:00 +20°C° 0 mm 2 mps 678 mmHg 80%
    10:00 +21°C° 0 mm 2 mps 677 mmHg 76%
    11:00 +23°C° 0 mm 2 mps 677 mmHg 72%
    12:00 +24°C° 0 mm 2 mps 677 mmHg 69%
    13:00 +25°C° 0 mm 2 mps 676 mmHg 66%
    14:00 +26°C° 0 mm 3 mps 676 mmHg 63%
    15:00 +26°C° 0 mm 3 mps 676 mmHg 63%
    16:00 +26°C° 0 mm 3 mps 676 mmHg 63%
    17:00 +26°C° 0 mm 2 mps 676 mmHg 63%
    18:00 +25°C° 0 mm 2 mps 676 mmHg 68%
    19:00 +23°C° 0 mm 1 mps 676 mmHg 73%
    20:00 +22°C° 0 mm 1 mps 676 mmHg 78%
    21:00 +22°C° 0 mm 1 mps 676 mmHg 79%
    22:00 +20°C° 0 mm 0 mps 676 mmHg 80%
    23:00 +20°C° 0 mm 0 mps 676 mmHg 81%

    23 January, Wednesday

    Time Temperature Precipitation Wind Pressure Humidity
    00:00 +19°C° 0 mm 0 mps 676 mmHg 83%
    01:00 +19°C° 0 mm 0 mps 675 mmHg 85%
    02:00 +18°C° 0 mm 0 mps 675 mmHg 87%
    03:00 +18°C° 0 mm 0 mps 675 mmHg 88%
    04:00 +18°C° 0 mm 0 mps 675 mmHg 90%
    05:00 +17°C° 0 mm 0 mps 675 mmHg 91%
    06:00 +21°C° 0 mm 1 mps 675 mmHg 87%
    07:00 +22°C° 0 mm 1 mps 676 mmHg 82%
    08:00 +23°C° 0 mm 1 mps 676 mmHg 77%
    09:00 +25°C° 0 mm 2 mps 677 mmHg 70%
    10:00 +27°C° 0 mm 2 mps 677 mmHg 63%
    11:00 +28°C° 0 mm 2 mps 677 mmHg 55%
    12:00 +29°C° 0 mm 3 mps 677 mmHg 49%
    13:00 +31°C° 0 mm 3 mps 676 mmHg 42%
    14:00 +33°C° 0 mm 3 mps 676 mmHg 36%
    15:00 +31°C° 0 mm 3 mps 676 mmHg 37%
    16:00 +31°C° 0 mm 3 mps 676 mmHg 37%
    17:00 +30°C° 0 mm 3 mps 675 mmHg 38%
    18:00 +27°C° 0 mm 2 mps 675 mmHg 46%
    19:00 +25°C° 0 mm 2 mps 675 mmHg 55%
    20:00 +22°C° 0 mm 1 mps 675 mmHg 63%
    21:00 +22°C° 0 mm 1 mps 676 mmHg 65%
    22:00 +21°C° 0 mm 1 mps 676 mmHg 68%
    23:00 +20°C° 0 mm 1 mps 676 mmHg 70%

    24 January, Thursday

    Time Temperature Precipitation Wind Pressure Humidity
    00:00 +20°C° 0 mm 1 mps 675 mmHg 69%
    01:00 +20°C° 0 mm 1 mps 675 mmHg 68%
    02:00 +19°C° 0 mm 1 mps 675 mmHg 67%
    03:00 +19°C° 0 mm 1 mps 675 mmHg 67%
    04:00 +19°C° 0 mm 1 mps 675 mmHg 66%
    05:00 +18°C° 0 mm 1 mps 675 mmHg 65%
    06:00 +20°C° 0 mm 1 mps 676 mmHg 61%
    07:00 +22°C° 0 mm 1 mps 676 mmHg 58%
    08:00 +23°C° 0 mm 1 mps 677 mmHg 54%
    09:00 +25°C° 0 mm 2 mps 677 mmHg 51%
    10:00 +27°C° 0 mm 2 mps 678 mmHg 48%
    11:00 +29°C° 0 mm 3 mps 678 mmHg 46%
    12:00 +29°C° 0 mm 3 mps 677 mmHg 47%
    13:00 +30°C° 0 mm 3 mps 677 mmHg 48%
    14:00 +30°C° 0 mm 3 mps 676 mmHg 49%
    15:00 +29°C° 0 mm 3 mps 676 mmHg 51%
    16:00 +29°C° 0 mm 3 mps 676 mmHg 53%
    17:00 +29°C° 0 mm 3 mps 676 mmHg 55%
    18:00 +27°C° 0.1 mm 2 mps 676 mmHg 64%
    19:00 +25°C° 0.1 mm 2 mps 677 mmHg 73%
    20:00 +23°C° 0.1 mm 1 mps 677 mmHg 82%
    21:00 +22°C° 0 mm 1 mps 677 mmHg 86%
    22:00 +21°C° 0 mm 1 mps 678 mmHg 89%
    23:00 +21°C° 0 mm 1 mps 678 mmHg 93%

    25 January, Friday

    Time Temperature Precipitation Wind Pressure Humidity
    00:00 +21°C° 0 mm 1 mps 677 mmHg 94%
    01:00 +21°C° 0 mm 1 mps 677 mmHg 95%
    02:00 +19°C° 0 mm 0 mps 677 mmHg 95%
    03:00 +19°C° 0 mm 0 mps 677 mmHg 96%
    04:00 +19°C° 0 mm 0 mps 677 mmHg 96%
    05:00 +19°C° 0 mm 0 mps 678 mmHg 96%
    06:00 +22°C° 0 mm 1 mps 678 mmHg 92%
    07:00 +23°C° 0 mm 1 mps 679 mmHg 88%
    08:00 +23°C° 0 mm 1 mps 679 mmHg 85%
    09:00 +25°C° 0.1 mm 1 mps 679 mmHg 76%
    10:00 +27°C° 0.1 mm 1 mps 679 mmHg 67%
    11:00 +29°C° 0.1 mm 2 mps 680 mmHg 58%
    12:00 +30°C° 0 mm 2 mps 679 mmHg 53%
    13:00 +31°C° 0 mm 2 mps 679 mmHg 47%
    14:00 +32°C° 0 mm 2 mps 678 mmHg 41%
    15:00 +31°C° 0 mm 2 mps 678 mmHg 43%
    16:00 +30°C° 0 mm 2 mps 678 mmHg 45%
    17:00 +30°C° 0 mm 2 mps 677 mmHg 46%
    18:00 +28°C° 0 mm 2 mps 678 mmHg 57%
    19:00 +25°C° 0 mm 1 mps 678 mmHg 67%
    20:00 +23°C° 0 mm 1 mps 678 mmHg 77%
    21:00 +22°C° 0 mm 1 mps 678 mmHg 82%
    22:00 +22°C° 0 mm 1 mps 678 mmHg 86%
    23:00 +19°C° 0 mm 0 mps 678 mmHg 90%
    Show more